Weather History for Selinsgrove, PA

Change the Weather History Date:

Wednesday, November 27, 2013

  Actual Average (KIPT) Record (KIPT)
Temperature  
Mean Temperature 32 °F 38 °F  
Max Temperature 37 °F 45 °F 70 °F (1896)
Min Temperature 28 °F 30 °F 3 °F (1938)
Degree Days  
Heating Degree Days 32 28  
Month to date heating degree days 617  
Since 1 July heating degree days 1160  
Cooling Degree Days 0 0  
Month to date cooling degree days 0  
Year to date cooling degree days 702  
Moisture  
Dew Point 29 °F    
Average Humidity 79    
Maximum Humidity 96    
Minimum Humidity 52    
Precipitation  
Precipitation 0.33 in 0.13 in 1.62 in (1993)
Month to date precipitation 3.34  
Year to date precipitation 37.95  
Snow  
Snow 0.00 in - - ()
Month to date snowfall  
Since 1 July snowfall  
Since 1 September snowfall  
Snow Depth -    
Sea Level Pressure  
Sea Level Pressure 29.65 in    
Wind  
Wind Speed 8 mph (NW)    
Max Wind Speed 18 mph    
Max Gust Speed 32 mph    
Visibility 7 miles    
Events Rain , Snow    
T = Trace of Precipitation, MM = Missing Value Source: NWS Daily Summary

Daily Weather History Graph

Daily Weather History Graph

Search for Another Location

Airport:

Trip Planner

Search our weather history database for the weather conditions in past years. The results will help you decide how hot, cold, wet, or windy it might be!

Date:

Astronomy

Nov. 27, 2013 Rise Set
Actual Time 7:08 AM EST 4:41 PM EST
Civil Twilight 6:38 AM EST 5:11 PM EST
Nautical Twilight 6:04 AM EST 5:45 PM EST
Astronomical Twilight 5:31 AM EST 6:18 PM EST
Moon 1:06 AM EST (11/27) 1:19 PM EST (11/27)
Length of Visible Light 10h 33m
Length of Day
9h 33m
Waning Crescent, 32% of the Moon is Illuminated
Nov 27
Waning Crescent
Dec 2
New
Dec 9
First Quarter
Dec 17
Full
Dec 25
Last Quarter

Hourly Weather History & Observations

Time (EST) Temp. Windchill Dew Point Humidity Pressure Visibility Wind Dir Wind Speed Gust Speed Precip Events Conditions
12:09 AM 34.0 °F 23.4 °F 32.0 °F 92% 29.66 in 2.0 mi WNW 17.3 mph 23.0 mph 0.08 in Rain Heavy Rain
12:23 AM 34.0 °F 26.0 °F 32.0 °F 92% 29.64 in 3.0 mi WNW 10.4 mph - 0.12 in Rain Rain
12:33 AM 34.0 °F 27.2 °F 33.1 °F 96% 29.63 in 3.0 mi West 8.1 mph - 0.15 in Rain Rain
12:53 AM 34.0 °F 28.8 °F 32.0 °F 92% 29.64 in 3.0 mi Variable 5.8 mph 17.3 mph 0.18 in Rain Rain
1:49 AM 35.6 °F - 33.8 °F 93% 29.59 in 4.0 mi Calm Calm - 0.04 in Rain Light Rain
1:53 AM 35.1 °F - 33.1 °F 92% 29.60 in 4.0 mi Calm Calm - 0.04 in Rain Light Rain
2:04 AM 35.1 °F - 33.1 °F 92% 29.59 in 4.0 mi Calm Calm - 0.00 in Rain Light Rain
2:19 AM 34.0 °F 29.8 °F 33.1 °F 96% 29.59 in 2.5 mi East 4.6 mph - 0.01 in Rain Light Rain
2:44 AM 34.0 °F 28.0 °F 33.1 °F 96% 29.57 in 3.0 mi WNW 6.9 mph - 0.04 in Rain Light Rain
2:53 AM 34.0 °F 31.0 °F 33.1 °F 96% 29.59 in 2.5 mi West 3.5 mph - 0.06 in Rain Rain
2:59 AM 34.0 °F - 33.1 °F 96% 29.57 in 3.0 mi Calm Calm - 0.00 in Rain Light Rain
3:53 AM 34.0 °F - 33.1 °F 96% 29.57 in 5.0 mi Calm Calm - 0.01 in Rain Light Rain
4:18 AM 35.1 °F 32.2 °F 33.1 °F 92% 29.54 in 9.0 mi Variable 3.5 mph - 0.00 in Rain Light Rain
4:53 AM 35.1 °F - 33.1 °F 92% 29.55 in 10.0 mi Calm Calm - 0.00 in   Overcast
5:53 AM 35.1 °F - 33.1 °F 92% 29.59 in 7.0 mi Calm Calm - 0.00 in Rain Light Rain
6:53 AM 34.0 °F 31.0 °F 33.1 °F 96% 29.58 in 3.0 mi NW 3.5 mph - 0.03 in Rain Rain
7:53 AM 36.0 °F 32.1 °F 33.1 °F 89% 29.60 in 10.0 mi Variable 4.6 mph - 0.01 in   Overcast
8:53 AM 37.9 °F 32.1 °F 30.9 °F 76% 29.61 in 10.0 mi NNW 8.1 mph - N/A   Overcast
9:11 AM 37.9 °F 32.7 °F 30.9 °F 76% 29.60 in 10.0 mi Variable 6.9 mph - N/A   Overcast
9:53 AM 37.9 °F 31.5 °F 30.9 °F 76% 29.63 in 10.0 mi NNW 9.2 mph - N/A   Overcast
10:39 AM 37.9 °F 30.5 °F 30.0 °F 73% 29.60 in 10.0 mi NNW 11.5 mph 18.4 mph N/A   Overcast
10:53 AM 37.9 °F 30.9 °F 30.0 °F 73% 29.59 in 10.0 mi NNW 10.4 mph - N/A   Overcast
11:53 AM 37.9 °F 30.9 °F 30.0 °F 73% 29.57 in 10.0 mi NNW 10.4 mph - N/A   Overcast
12:53 PM 37.9 °F 30.9 °F 28.9 °F 70% 29.59 in 10.0 mi NNW 10.4 mph - N/A   Overcast
1:53 PM 37.9 °F 32.1 °F 28.9 °F 70% 29.59 in 10.0 mi NNW 8.1 mph - N/A   Overcast
2:05 PM 37.0 °F 29.3 °F 28.9 °F 73% 29.58 in 10.0 mi NNW 11.5 mph - 0.00 in Snow Light Snow
2:53 PM 37.0 °F 29.8 °F 28.0 °F 70% 29.62 in 10.0 mi NNW 10.4 mph - 0.00 in   Overcast
3:53 PM 37.0 °F 31.6 °F 28.0 °F 70% 29.65 in 10.0 mi WNW 6.9 mph 17.3 mph N/A   Overcast
4:53 PM 36.0 °F 26.0 °F 24.1 °F 62% 29.69 in 10.0 mi WNW 17.3 mph 27.6 mph 0.00 in   Overcast
5:53 PM 35.1 °F 24.5 °F 19.0 °F 52% 29.73 in 10.0 mi NW 18.4 mph 32.2 mph N/A   Overcast
6:53 PM 33.1 °F 23.9 °F 21.0 °F 61% 29.76 in 10.0 mi NW 12.7 mph 23.0 mph N/A   Mostly Cloudy
7:53 PM 32.0 °F 23.0 °F 19.0 °F 59% 29.81 in 10.0 mi WNW 11.5 mph 20.7 mph 0.00 in   Overcast
8:53 PM 30.0 °F 21.1 °F 18.0 °F 61% 29.83 in 10.0 mi West 10.4 mph 19.6 mph N/A   Overcast
9:53 PM 30.0 °F 19.1 °F 16.0 °F 56% 29.86 in 10.0 mi West 15.0 mph 24.2 mph N/A   Mostly Cloudy
10:53 PM 28.9 °F 19.8 °F 17.1 °F 61% 29.90 in 10.0 mi WNW 10.4 mph 20.7 mph N/A   Overcast
11:53 PM 28.0 °F 18.6 °F 14.0 °F 56% 29.96 in 10.0 mi WNW 10.4 mph 17.3 mph N/A   Overcast